When you browse on this site, cookies collect data to enhance your experience and personalize the content and advertising you see.
Visit our Privacy Policy to learn more. By continuing to use the site, you agree to this use of cookies and data.
  • In United Kingdom
  • List of Countries
  • For 7 days
  • Water Temperature
  • Weather Map
  • Weather Widgets
  • user-avatar
    Login

    Hourly Weather Chervonaya Sloboda

    Today, 27 February, Thursday

    Time Temperature Precipitation Wind Pressure Humidity
    00:00 +5°C° 0 mm 3 mps 736 mmHg 88%
    01:00 +5°C° 0 mm 4 mps 736 mmHg 86%
    02:00 +5°C° 0 mm 3 mps 736 mmHg 87%
    03:00 +4°C° 0 mm 3 mps 736 mmHg 87%
    04:00 +4°C° 0 mm 3 mps 736 mmHg 88%
    05:00 +4°C° 0 mm 3 mps 736 mmHg 88%
    06:00 +5°C° 0 mm 2 mps 736 mmHg 89%
    07:00 +5°C° 0 mm 2 mps 736 mmHg 89%
    08:00 +5°C° 0 mm 2 mps 736 mmHg 89%
    09:00 +6°C° 0.4 mm 2 mps 736 mmHg 88%
    10:00 +5°C° 0.4 mm 3 mps 736 mmHg 88%
    11:00 +7°C° 0.4 mm 3 mps 736 mmHg 87%
    12:00 +5°C° 0.6 mm 3 mps 736 mmHg 87%
    13:00 +5°C° 0.6 mm 3 mps 736 mmHg 86%
    14:00 +6°C° 0.6 mm 2 mps 736 mmHg 86%
    15:00 +5°C° 1.1 mm 3 mps 736 mmHg 87%
    16:00 +4°C° 1.1 mm 4 mps 737 mmHg 88%
    17:00 +3°C° 1.1 mm 5 mps 737 mmHg 89%
    18:00 +3°C° 0.2 mm 4 mps 737 mmHg 87%
    19:00 +3°C° 0.2 mm 4 mps 737 mmHg 86%
    20:00 +3°C° 0.2 mm 3 mps 738 mmHg 85%
    21:00 +2°C° 0 mm 3 mps 738 mmHg 85%
    22:00 +2°C° 0 mm 3 mps 737 mmHg 84%
    23:00 +2°C° 0 mm 3 mps 737 mmHg 84%

    Tomorrow, 28 February, Friday

    Time Temperature Precipitation Wind Pressure Humidity
    00:00 +1°C° 0 mm 4 mps 737 mmHg 82%
    01:00 +1°C° 0 mm 4 mps 737 mmHg 80%
    02:00 +1°C° 0 mm 5 mps 737 mmHg 78%
    03:00 +1°C° 0 mm 5 mps 737 mmHg 77%
    04:00 0°C° 0 mm 5 mps 737 mmHg 77%
    05:00 0°C° 0 mm 5 mps 737 mmHg 76%
    06:00 0°C° 0 mm 5 mps 738 mmHg 76%
    07:00 -1°C° 0 mm 6 mps 739 mmHg 77%
    08:00 -2°C° 0 mm 6 mps 740 mmHg 77%
    09:00 -1°C° 0 mm 6 mps 740 mmHg 71%
    10:00 +1°C° 0 mm 6 mps 741 mmHg 65%
    11:00 +2°C° 0 mm 6 mps 742 mmHg 59%
    12:00 +3°C° 0 mm 6 mps 742 mmHg 58%
    13:00 +3°C° 0 mm 6 mps 743 mmHg 56%
    14:00 +3°C° 0 mm 5 mps 744 mmHg 55%
    15:00 +4°C° 0 mm 4 mps 744 mmHg 56%
    16:00 +4°C° 0 mm 4 mps 744 mmHg 57%
    17:00 +3°C° 0 mm 3 mps 744 mmHg 58%
    18:00 +3°C° 0 mm 3 mps 745 mmHg 62%
    19:00 +3°C° 0 mm 2 mps 746 mmHg 65%
    20:00 +3°C° 0 mm 2 mps 746 mmHg 69%
    21:00 +3°C° 0 mm 2 mps 746 mmHg 71%
    22:00 +3°C° 0 mm 2 mps 747 mmHg 73%
    23:00 +2°C° 0 mm 2 mps 747 mmHg 74%

    Day after tomorrow, 29 February, Saturday

    Time Temperature Precipitation Wind Pressure Humidity
    00:00 +2°C° 0.1 mm 2 mps 747 mmHg 76%
    01:00 +2°C° 0.1 mm 2 mps 747 mmHg 77%
    02:00 +2°C° 0.1 mm 2 mps 747 mmHg 78%
    03:00 +2°C° 0 mm 2 mps 748 mmHg 79%
    04:00 +2°C° 0 mm 2 mps 748 mmHg 80%
    05:00 +2°C° 0 mm 2 mps 748 mmHg 81%
    06:00 +2°C° 0 mm 2 mps 748 mmHg 81%
    07:00 +2°C° 0 mm 2 mps 749 mmHg 81%
    08:00 +2°C° 0 mm 2 mps 749 mmHg 82%
    09:00 +3°C° 0 mm 2 mps 749 mmHg 74%
    10:00 +3°C° 0 mm 3 mps 749 mmHg 67%
    11:00 +4°C° 0 mm 3 mps 749 mmHg 60%
    12:00 +5°C° 0 mm 3 mps 750 mmHg 57%
    13:00 +5°C° 0 mm 3 mps 750 mmHg 54%
    14:00 +7°C° 0 mm 3 mps 750 mmHg 51%
    15:00 +5°C° 0 mm 3 mps 750 mmHg 54%
    16:00 +6°C° 0 mm 2 mps 750 mmHg 56%
    17:00 +6°C° 0 mm 1 mps 750 mmHg 58%
    18:00 +6°C° 0 mm 1 mps 750 mmHg 61%
    19:00 +5°C° 0 mm 1 mps 751 mmHg 63%
    20:00 +4°C° 0 mm 1 mps 751 mmHg 66%
    21:00 +4°C° 0 mm 1 mps 752 mmHg 68%
    22:00 +4°C° 0 mm 1 mps 752 mmHg 69%
    23:00 +2°C° 0 mm 2 mps 752 mmHg 71%

    1 March, Sunday

    Time Temperature Precipitation Wind Pressure Humidity
    00:00 +2°C° 0 mm 2 mps 752 mmHg 71%
    01:00 +2°C° 0 mm 2 mps 752 mmHg 72%
    02:00 +1°C° 0 mm 2 mps 753 mmHg 73%
    03:00 +1°C° 0 mm 2 mps 753 mmHg 73%
    04:00 +1°C° 0 mm 2 mps 753 mmHg 73%
    05:00 +1°C° 0 mm 2 mps 753 mmHg 73%
    06:00 0°C° 0 mm 3 mps 753 mmHg 72%
    07:00 +1°C° 0 mm 3 mps 753 mmHg 70%
    08:00 0°C° 0 mm 4 mps 754 mmHg 69%
    09:00 +3°C° 0 mm 4 mps 754 mmHg 64%
    10:00 +3°C° 0 mm 5 mps 754 mmHg 59%
    11:00 +5°C° 0 mm 6 mps 753 mmHg 55%
    12:00 +5°C° 0 mm 7 mps 753 mmHg 53%
    13:00 +6°C° 0 mm 7 mps 753 mmHg 52%
    14:00 +6°C° 0 mm 7 mps 752 mmHg 51%
    15:00 +6°C° 0 mm 7 mps 752 mmHg 53%
    16:00 +5°C° 0 mm 6 mps 752 mmHg 55%
    17:00 +5°C° 0 mm 6 mps 751 mmHg 57%
    18:00 +4°C° 0 mm 6 mps 751 mmHg 59%
    19:00 +4°C° 0 mm 6 mps 751 mmHg 62%
    20:00 +3°C° 0 mm 6 mps 751 mmHg 65%
    21:00 +3°C° 0 mm 6 mps 751 mmHg 65%
    22:00 +3°C° 0 mm 7 mps 751 mmHg 66%
    23:00 +3°C° 0 mm 7 mps 751 mmHg 67%

    2 March, Monday

    Time Temperature Precipitation Wind Pressure Humidity
    00:00 +2°C° 0 mm 6 mps 751 mmHg 70%
    01:00 +2°C° 0 mm 6 mps 751 mmHg 73%
    02:00 +2°C° 0 mm 6 mps 751 mmHg 76%
    03:00 +2°C° 0 mm 6 mps 751 mmHg 77%
    04:00 +1°C° 0 mm 6 mps 750 mmHg 79%
    05:00 +1°C° 0 mm 6 mps 750 mmHg 80%
    06:00 0°C° 0 mm 7 mps 750 mmHg 80%
    07:00 +2°C° 0 mm 7 mps 750 mmHg 80%
    08:00 +1°C° 0 mm 8 mps 750 mmHg 80%
    09:00 +2°C° 0 mm 8 mps 750 mmHg 75%
    10:00 +4°C° 0 mm 8 mps 750 mmHg 70%
    11:00 +5°C° 0 mm 9 mps 749 mmHg 65%
    12:00 +5°C° 0 mm 9 mps 749 mmHg 61%
    13:00 +5°C° 0 mm 9 mps 749 mmHg 57%
    14:00 +6°C° 0 mm 9 mps 748 mmHg 53%
    15:00 +5°C° 0 mm 9 mps 748 mmHg 53%
    16:00 +5°C° 0 mm 8 mps 747 mmHg 54%
    17:00 +5°C° 0 mm 8 mps 746 mmHg 54%
    18:00 +4°C° 0 mm 8 mps 746 mmHg 59%
    19:00 +3°C° 0 mm 9 mps 746 mmHg 64%
    20:00 +3°C° 0 mm 9 mps 746 mmHg 68%
    21:00 +2°C° 0 mm 9 mps 746 mmHg 71%
    22:00 +2°C° 0 mm 9 mps 745 mmHg 73%
    23:00 +2°C° 0 mm 9 mps 745 mmHg 75%

    3 March, Tuesday

    Time Temperature Precipitation Wind Pressure Humidity
    00:00 +2°C° 0.6 mm 9 mps 745 mmHg 78%
    01:00 +2°C° 0.6 mm 8 mps 744 mmHg 81%
    02:00 +1°C° 0.6 mm 8 mps 744 mmHg 84%
    03:00 +2°C° 0.1 mm 8 mps 743 mmHg 83%
    04:00 +2°C° 0.1 mm 8 mps 743 mmHg 83%
    05:00 +3°C° 0.1 mm 7 mps 743 mmHg 83%
    06:00 +4°C° 0.7 mm 7 mps 743 mmHg 86%
    07:00 +4°C° 0.7 mm 6 mps 744 mmHg 88%
    08:00 +4°C° 0.7 mm 6 mps 744 mmHg 91%
    09:00 +5°C° 0.1 mm 5 mps 745 mmHg 90%
    10:00 +6°C° 0.1 mm 4 mps 745 mmHg 88%
    11:00 +6°C° 0.1 mm 4 mps 746 mmHg 87%
    12:00 +8°C° 0 mm 4 mps 746 mmHg 83%
    13:00 +10°C° 0 mm 3 mps 746 mmHg 79%
    14:00 +11°C° 0 mm 3 mps 747 mmHg 74%
    15:00 +10°C° 0 mm 2 mps 747 mmHg 76%
    16:00 +11°C° 0 mm 1 mps 747 mmHg 78%
    17:00 +11°C° 0 mm 1 mps 748 mmHg 79%
    18:00 +10°C° 0 mm 1 mps 748 mmHg 81%
    19:00 +8°C° 0 mm 2 mps 748 mmHg 84%
    20:00 +8°C° 0 mm 2 mps 748 mmHg 86%
    21:00 +7°C° 0 mm 3 mps 748 mmHg 87%
    22:00 +7°C° 0 mm 3 mps 748 mmHg 88%
    23:00 +7°C° 0 mm 3 mps 748 mmHg 90%
    Show more